Weather History for Knoxville, IA

Change the Weather History Date:

Saturday, January 19, 2013

  Actual Average Record
Temperature  
Mean Temperature 39 °F -  
Max Temperature 55 °F 33 °F 57 °F (1952)
Min Temperature 19 °F 14 °F -18 °F (1970)
Degree Days  
Heating Degree Days 26    
Moisture  
Dew Point 26 °F    
Average Humidity 55    
Maximum Humidity 70    
Minimum Humidity 29    
Precipitation  
Precipitation 0.00 in - - ()
Sea Level Pressure  
Sea Level Pressure 29.95 in    
Wind  
Wind Speed 13 mph (West)    
Max Wind Speed 32 mph    
Max Gust Speed 45 mph    
Visibility 10 miles    
Events      
Averages and records for this station are not official NWS values.
T = Trace of Precipitation, MM = Missing Value Source: NWS Daily Summary

Daily Weather History Graph

Daily Weather History Graph

Search for Another Location

Airport:

Trip Planner

Search our weather history database for the weather conditions in past years. The results will help you decide how hot, cold, wet, or windy it might be!

Date:

Astronomy

Jan. 19, 2013 Rise Set
Actual Time 7:33 AM CST 5:13 PM CST
Civil Twilight 7:03 AM CST 5:43 PM CST
Nautical Twilight 6:29 AM CST 6:17 PM CST
Astronomical Twilight 5:56 AM CST 6:50 PM CST
Moon 11:40 AM CST (1/19) 1:07 AM CST (1/19)
Length of Visible Light 10h 39m
Length of Day
9h 39m
First Quarter, 57% of the Moon is Illuminated
Jan 19
First Quarter
Jan 26
Full
Feb 3
Last Quarter
Feb 10
New
Feb 17
First Quarter

Hourly Weather History & Observations

Time (CST) Temp. Windchill Dew Point Humidity Pressure Visibility Wind Dir Wind Speed Gust Speed Precip Events Conditions
12:15 AM 39.2 °F 33.0 °F 28.4 °F 65% 29.90 in 10.0 mi SSW 9.2 mph - N/A   Clear
12:35 AM 41.0 °F 34.3 °F 28.4 °F 61% 29.89 in 10.0 mi SW 11.5 mph - N/A   Clear
12:55 AM 42.8 °F 36.6 °F 30.2 °F 61% 29.89 in 10.0 mi SW 11.5 mph - N/A   Clear
1:15 AM 42.8 °F 36.2 °F 30.2 °F 61% 29.89 in 10.0 mi SW 12.7 mph - N/A   Clear
1:35 AM 42.8 °F 37.0 °F 30.2 °F 61% 29.89 in 10.0 mi SSW 10.4 mph - N/A   Clear
1:55 AM 41.0 °F 35.8 °F 28.4 °F 61% 29.89 in 10.0 mi SSW 8.1 mph - N/A   Clear
2:15 AM 39.2 °F 34.2 °F 28.4 °F 65% 29.89 in 10.0 mi SSW 6.9 mph - N/A   Clear
2:35 AM 39.2 °F 34.2 °F 28.4 °F 65% 29.88 in 10.0 mi SSW 6.9 mph - N/A   Clear
2:55 AM 39.2 °F 35.0 °F 28.4 °F 65% 29.88 in 10.0 mi SW 5.8 mph - N/A   Clear
3:15 AM 39.2 °F 33.0 °F 28.4 °F 65% 29.87 in 10.0 mi SSW 9.2 mph - N/A   Clear
3:35 AM 39.2 °F 31.6 °F 28.4 °F 65% 29.86 in 10.0 mi SSW 12.7 mph - N/A   Clear
3:55 AM 39.2 °F 32.5 °F 28.4 °F 65% 29.86 in 10.0 mi SW 10.4 mph - N/A   Clear
4:15 AM 39.2 °F 32.5 °F 28.4 °F 65% 29.85 in 10.0 mi SW 10.4 mph - N/A   Clear
4:35 AM 37.4 °F 29.8 °F 28.4 °F 70% 29.85 in 10.0 mi SW 11.5 mph 17.3 mph N/A   Clear
4:55 AM 37.4 °F 30.3 °F 28.4 °F 70% 29.85 in 10.0 mi SSW 10.4 mph - N/A   Clear
5:15 AM 37.4 °F 30.3 °F 28.4 °F 70% 29.85 in 10.0 mi SSW 10.4 mph - N/A   Clear
5:35 AM 37.4 °F 29.8 °F 28.4 °F 70% 29.84 in 10.0 mi SSW 11.5 mph - N/A   Clear
5:55 AM 37.4 °F 30.3 °F 28.4 °F 70% 29.84 in 10.0 mi SW 10.4 mph - N/A   Clear
7:15 AM 37.4 °F 28.9 °F 28.4 °F 70% 29.84 in 10.0 mi SW 13.8 mph - N/A   Clear
7:55 AM 37.4 °F 28.9 °F 28.4 °F 70% 29.83 in 10.0 mi SW 13.8 mph - N/A   Clear
8:15 AM 39.2 °F 30.8 °F 28.4 °F 65% 29.83 in 10.0 mi SW 15.0 mph 19.6 mph N/A   Clear
8:35 AM 39.2 °F 30.5 °F 30.2 °F 70% 29.84 in 10.0 mi SW 16.1 mph 24.2 mph N/A   Clear
9:35 AM 39.2 °F 33.0 °F 30.2 °F 70% 29.88 in 10.0 mi WSW 9.2 mph - N/A   Clear
9:55 AM 41.0 °F 35.2 °F 30.2 °F 65% 29.87 in 10.0 mi SW 9.2 mph - N/A   Clear
10:15 AM 42.8 °F 36.2 °F 30.2 °F 61% 29.90 in 10.0 mi West 12.7 mph 19.6 mph N/A   Clear
10:35 AM 42.8 °F 35.8 °F 30.2 °F 61% 29.90 in 10.0 mi West 13.8 mph - N/A   Clear
10:55 AM 44.6 °F 36.9 °F 30.2 °F 57% 29.89 in 10.0 mi WSW 18.4 mph - N/A   Clear
11:15 AM 46.4 °F 39.2 °F 28.4 °F 50% 29.89 in 10.0 mi West 18.4 mph - N/A   Clear
11:35 AM 48.2 °F - 28.4 °F 46% 29.87 in 10.0 mi West 16.1 mph 19.6 mph N/A   Clear
11:55 AM 48.2 °F - 28.4 °F 46% 29.86 in 10.0 mi WSW 16.1 mph - N/A   Clear
12:15 PM 50.0 °F - 26.6 °F 40% 29.85 in 10.0 mi West 17.3 mph 20.7 mph N/A   Clear
12:35 PM 51.8 °F - 26.6 °F 38% 29.85 in 10.0 mi West 16.1 mph - N/A   Clear
12:55 PM 53.6 °F - 26.6 °F 35% 29.85 in 10.0 mi West 18.4 mph - N/A   Clear
1:35 PM 55.4 °F - 24.8 °F 31% 29.85 in 10.0 mi West 19.6 mph - N/A   Clear
1:55 PM 55.4 °F - 23.0 °F 29% 29.86 in 10.0 mi West 20.7 mph 25.3 mph N/A   Clear
2:15 PM 53.6 °F - 24.8 °F 33% 29.88 in 10.0 mi WNW 24.2 mph - N/A   Clear
2:35 PM 53.6 °F - 26.6 °F 35% 29.88 in 10.0 mi WNW 18.4 mph 28.8 mph N/A   Clear
2:55 PM 53.6 °F - 26.6 °F 35% 29.89 in 10.0 mi West 21.9 mph 27.6 mph N/A   Clear
3:15 PM 51.8 °F - 26.6 °F 38% 29.90 in 10.0 mi WNW 16.1 mph 27.6 mph N/A   Clear
3:35 PM 51.8 °F - 26.6 °F 38% 29.91 in 10.0 mi WNW 18.4 mph - N/A   Clear
3:55 PM 51.8 °F - 28.4 °F 41% 29.93 in 10.0 mi WNW 16.1 mph 25.3 mph N/A   Clear
4:15 PM 50.0 °F - 28.4 °F 43% 29.94 in 10.0 mi WNW 12.7 mph - N/A   Clear
4:35 PM 48.2 °F - 28.4 °F 46% 29.97 in 10.0 mi WNW 17.3 mph 25.3 mph N/A   Clear
4:55 PM 48.2 °F - 30.2 °F 50% 29.98 in 10.0 mi NW 13.8 mph - N/A   Clear
5:15 PM 46.4 °F 39.0 °F 30.2 °F 53% 29.99 in 10.0 mi WNW 19.6 mph 25.3 mph N/A   Clear
5:35 PM 44.6 °F 38.1 °F 30.2 °F 57% 30.01 in 10.0 mi WNW 13.8 mph 21.9 mph N/A   Clear
5:55 PM 44.6 °F 38.1 °F 30.2 °F 57% 30.01 in 10.0 mi WNW 13.8 mph 24.2 mph N/A   Clear
6:15 PM 42.8 °F 35.4 °F 30.2 °F 61% 30.02 in 10.0 mi WNW 15.0 mph 20.7 mph N/A   Clear
6:35 PM 42.8 °F 35.8 °F 30.2 °F 61% 30.03 in 10.0 mi WNW 13.8 mph 20.7 mph N/A   Clear
6:55 PM 41.0 °F 31.6 °F 30.2 °F 65% 30.04 in 10.0 mi WNW 20.7 mph 29.9 mph N/A   Clear
7:15 PM 41.0 °F 31.9 °F 28.4 °F 61% 30.06 in 10.0 mi WNW 19.6 mph 25.3 mph N/A   Clear
7:35 PM 41.0 °F 31.9 °F 28.4 °F 61% 30.07 in 10.0 mi WNW 19.6 mph 27.6 mph N/A   Clear
7:55 PM 41.0 °F 30.9 °F 28.4 °F 61% 30.08 in 10.0 mi NW 24.2 mph 31.1 mph N/A   Scattered Clouds
8:15 PM 39.2 °F 29.3 °F 26.6 °F 61% 30.09 in 10.0 mi NW 20.7 mph 33.4 mph N/A   Mostly Cloudy
8:35 PM 37.4 °F 24.8 °F 10.4 °F 33% 30.11 in 10.0 mi NW 31.1 mph 44.9 mph N/A   Scattered Clouds
8:55 PM 35.6 °F 24.0 °F 8.6 °F 33% 30.11 in 10.0 mi WNW 23.0 mph 40.3 mph N/A   Clear
9:15 PM 33.8 °F 19.6 °F 6.8 °F 32% 30.13 in 10.0 mi NW 32.2 mph 36.8 mph N/A   Clear
9:35 PM 32.0 °F 20.5 °F 10.4 °F 41% 30.15 in 10.0 mi NW 18.4 mph 29.9 mph N/A   Clear
9:55 PM 30.2 °F 18.9 °F 17.6 °F 60% 30.17 in 10.0 mi NNW 16.1 mph 29.9 mph N/A   Scattered Clouds
10:15 PM 30.2 °F 18.9 °F 19.4 °F 64% 30.18 in 10.0 mi NNW 16.1 mph 23.0 mph N/A   Mostly Cloudy
10:35 PM 28.4 °F 15.1 °F 17.6 °F 64% 30.20 in 10.0 mi NNW 20.7 mph 32.2 mph N/A   Overcast
10:55 PM 26.6 °F 14.3 °F 17.6 °F 69% 30.22 in 10.0 mi NW 16.1 mph 27.6 mph N/A   Overcast
11:15 PM 24.8 °F 10.7 °F 12.2 °F 59% 30.23 in 10.0 mi NNW 19.6 mph 25.3 mph N/A   Overcast
11:35 PM 23.0 °F 8.0 °F 8.6 °F 54% 30.25 in 10.0 mi NNW 20.7 mph 28.8 mph N/A   Overcast
11:55 PM 19.4 °F 5.0 °F 5.0 °F 54% 30.26 in 10.0 mi NNW 16.1 mph 24.2 mph N/A   Scattered Clouds